Content
SEND FEEDBACK

Daily
Averages
Monthly
Summary
United States of America

PUT IN BAY, OHIO


Home > North America > United States > Ohio
Elevation: 561 feet     Latitude: 41 39N     Longitude: 082 48W

WEATHER
 
SELECT A DAY
Number of Records: 124,809;   Date Range: 12/10/00 - 10/19/14
 
SHARE

PRINT THIS DATA

[ ← Previous Day ]
WEATHER ALMANAC - AUGUST 22, 2013
[ Next Day → ]
[ °C ]   °F
Weather ElementAverageHighLow
Temperature74.6 °F80 °F (2:00 pm)70 °F (8:00 am)
Dewpoint67.2 °F69.3 °F (12:00 pm)66.4 °F (6:00 am)
Humidity77.6 %91 % (9:00 am)57 % (2:00 pm)
Barometer29.98 in30.02 in (9:00 am)29.95 in (5:00 am)
Wind Speed6.1 mph9.2 mph (5:00 pm)
Weather ElementAverage
Wind DirectionWSW (255.4 °)

Weather ElementTotal
Precipitation0.02 in
Cooling Degree Days10 (Base 65)
Growing Degree Days25 (Base 50)
Averaged from 26 records on August 22, 2013
WEATHER CONDITIONS BREAKOUT
WIND DIRECTION BREAKOUT
WEATHER BY HOUR - AUGUST 22, 2013
[ °C ]   °F
Local TimeTemperatureDewpointHumidityBarometerVisibilityWind DirectionWind SpeedGust SpeedPrecipitationEventsConditions
1:00 AM72.1 °F68.0 °F87 %30.01 inSW (230°)4.6 mph
2:00 AM71.0 °F67.0 °F82 %30.00 inWSW (240°)6.9 mph
2:00 AM71.4 °F66.7 °F85 %30.00 inWSW (240°)6.9 mph
3:00 AM71.2 °F66.7 °F86 %29.99 inWSW (250°)6.9 mph
4:00 AM71.8 °F66.9 °F85 %29.98 inSW (230°)8.1 mph
5:00 AM70.9 °F66.6 °F86 %29.95 inSW (230°)5.8 mph
6:00 AM70.5 °F66.4 °F87 %29.95 inSW (230°)6.9 mph
7:00 AM71.8 °F66.9 °F85 %29.98 inWest (280°)6.9 mph
8:00 AM70.0 °F66.4 °F88 %30.00 inWest (280°)8.1 mph
9:00 AM70.3 °F67.5 °F91 %30.02 inWest (280°)5.8 mph0.02 in
10:00 AM73.8 °F66.9 °F79 %30.00 inWest (280°)5.8 mph
11:00 AM76.3 °F67.5 °F74 %30.01 inWNW (290°)5.8 mph
12:00 PM78.6 °F69.3 °F73 %30.00 inWSW (240°)5.8 mph
1:00 PM79.2 °F67.3 °F67 %30.00 inWest (270°)6.9 mph
2:00 PM80.0 °F67.0 °F57 %29.99 inWSW (250°)5.8 mph
2:00 PM79.9 °F67.3 °F65 %29.99 inWSW (250°)5.8 mph
3:00 PM79.3 °F67.3 °F66 %29.99 inWSW (250°)6.9 mph
4:00 PM79.0 °F68.0 °F69 %29.97 inWSW (250°)5.8 mph
5:00 PM79.3 °F67.5 °F67 %29.96 inWNW (290°)9.2 mph
6:00 PM78.1 °F68.0 °F71 %29.96 inWest (270°)6.9 mph
7:00 PM76.8 °F67.5 °F73 %29.96 inWNW (290°)5.8 mph
8:00 PM75.0 °F67.0 °F71 %29.97 inWest (280°)6.9 mph
8:00 PM75.0 °F67.3 °F77 %29.97 inWest (280°)6.9 mph
9:00 PM73.6 °F67.1 °F80 %29.97 inWNW (300°)4.6 mph
10:00 PM72.5 °F67.1 °F83 %29.98 inNNW (330°)1.2 mph
11:00 PM72.1 °F67.1 °F84 %29.99 inNNE (30°)2.3 mph
Hourly data recorded from CXHA, located miles away from Put In Bay, Ohio







STORIES FROM OUR PARTNERS